Location: Peterborough
(44.3091°N, 78.3197°W)
Time: 16:25:35
(UTC-04:00)

Transit 4A - Pass Details

Date: 26 March 2023
Orbit: 864 x 980 km, 66.8° (Epoch: 04 June)

Event Time Altitude Azimuth Distance (km) Brightness Sun altitude
Rises 08:57:21 0° 251° (WSW) 3,443 10.4 18.9°
Reaches altitude 10° 09:00:16 10° 265° (W) 2,517 9.7 19.4°
Maximum altitude 09:04:58 25° 319° (NW) 1,715 9.0 20.2°
Drops below altitude 10° 09:09:47 10° 14° (NNE) 2,573 10.2 21.1°
Sets 09:12:49 0° 27° (NNE) 3,537 11.0 21.6°
